Weather History for VTUU - February, 2013

Change the Weather History Date:

Monday, February 4, 2013

  Actual Average Record
Temperature  
Mean Temperature 82 °F -  
Max Temperature 93 °F 93 °F - ()
Min Temperature 72 °F 68 °F - ()
Cooling Degree Days 18    
Growing Degree Days 32 (Base 50)    
Moisture  
Dew Point 67 °F    
Average Humidity 63    
Maximum Humidity 83    
Minimum Humidity 32    
Precipitation  
Precipitation 0.00 in 0.02 in - ()
Sea Level Pressure  
Sea Level Pressure 29.94 in    
Wind  
Wind Speed 3 mph ()    
Max Wind Speed 7 mph    
Max Gust Speed -    
Visibility 5.4 miles    
Events      
T = Trace of Precipitation, MM = Missing Value Source: Averaged Metar Reports

Daily Weather History Graph

Daily Weather History Graph

Search for Another Location

Airport or City:

Trip Planner

Search our weather history database for the weather conditions in past years. The results will help you decide how hot, cold, wet, or windy it might be!

Date:

Astronomy

Feb. 04, 2013 Rise Set
Actual Time 6:29 AM ICT 6:00 PM ICT
Civil Twilight 6:06 AM ICT 6:22 PM ICT
Nautical Twilight 5:41 AM ICT 6:47 PM ICT
Astronomical Twilight 5:15 AM ICT 7:13 PM ICT
Moon 12:22 AM ICT (2/4) 12:06 PM ICT (2/4)
Length of Visible Light 12h 15m
Length of Day
11h 30m
Last Quarter, 43% of the Moon is Illuminated
Feb 4
Last Quarter
Feb 10
New
Feb 18
First Quarter
Feb 26
Full
Mar 5
Last Quarter

Hourly Weather History & Observations

Time (ICT) Temp. Heat Index Dew Point Humidity Pressure Visibility Wind Dir Wind Speed Gust Speed Precip Events Conditions
12:00 AM 77.0 °F - 66.2 °F 69% 29.92 in 5.6 mi North 3.5 mph - N/A   Unknown
1:00 AM 77 °F - 67 °F 64% 29.94 in 6 mi NNE 1.2 mph - -   Mist
1:00 AM 77.0 °F - 66.2 °F 69% 29.92 in 5.6 mi NNE 2.3 mph - N/A   Unknown
2:00 AM 75.2 °F - 66.2 °F 73% 29.92 in 5.6 mi NE 3.5 mph - N/A   Unknown
3:00 AM 75.2 °F - 68.0 °F 78% 29.92 in 5.6 mi NNE 3.5 mph - N/A   Unknown
4:00 AM 75.2 °F - 68.0 °F 78% 29.92 in 5.0 mi SSE 1.2 mph - N/A   Unknown
5:00 AM 75.2 °F - 68.0 °F 78% 29.92 in 4.3 mi East 2.3 mph - N/A   Overcast
6:00 AM 75.2 °F - 68.0 °F 78% 29.92 in 4.3 mi NE 3.5 mph - N/A   Overcast
6:30 AM 75.2 °F - 68.0 °F 78% 29.95 in 4.3 mi NW 3.5 mph - N/A   Unknown
7:00 AM 73 °F - 68 °F 79% 29.96 in 4 mi NNE 2.3 mph - -   Mist
7:00 AM 73.4 °F - 68.0 °F 83% 29.95 in 4.3 mi NNE 3.5 mph - N/A   Unknown
8:00 AM 73.4 °F - 68.0 °F 83% 29.98 in 5.6 mi North 4.6 mph - N/A   Unknown
9:00 AM 78.8 °F - 68.0 °F 69% 30.01 in 5.6 mi North 5.8 mph - N/A   Unknown
10:00 AM 82.4 °F 84.6 °F 66.2 °F 58% 30.01 in 5.6 mi NNW 6.9 mph - N/A   Mostly Cloudy
11:00 AM 86.0 °F 88.2 °F 66.2 °F 51% 29.98 in 6.2 mi NW 2.3 mph - N/A   Mostly Cloudy
12:00 PM 89.6 °F 92.2 °F 66.2 °F 46% 29.95 in 6.2 mi SE 4.6 mph - N/A   Mostly Cloudy
1:00 PM 93 °F - 67 °F 32% 29.92 in 6 mi SE 4.6 mph - -   Scattered Clouds
1:00 PM 93.2 °F 96.2 °F 66.2 °F 41% 29.92 in 6.2 mi SE 4.6 mph - N/A   Scattered Clouds
3:00 PM 93.2 °F 96.2 °F 66.2 °F 41% 29.86 in 6.2 mi East 3.5 mph - N/A   Scattered Clouds
5:30 PM 91.4 °F 93.2 °F 64.4 °F 41% 29.89 in 5.6 mi ENE 2.3 mph - N/A   Scattered Clouds
7:00 PM 87.8 °F 90.4 °F 66.2 °F 49% 29.89 in 5.6 mi ENE 2.3 mph - N/A   Scattered Clouds
8:00 PM 86.0 °F 89.4 °F 68.0 °F 55% 29.92 in 5.6 mi ENE 2.3 mph - N/A   Scattered Clouds
9:00 PM 84.2 °F 87.3 °F 68.0 °F 58% 29.92 in 5.6 mi ENE 1.2 mph - N/A   Scattered Clouds
10:00 PM 82.4 °F 85.4 °F 68.0 °F 62% 29.95 in 5.6 mi NE 2.3 mph - N/A   Scattered Clouds
11:00 PM 80.6 °F 83.2 °F 68.0 °F 65% 29.95 in 5.6 mi ESE 2.3 mph - N/A   Unknown